Wind_Speed
15 15 15 16 16 16 17 16 16 16 17 17 17 17 17 18 18 18 18 18 19 18 18 18 18 17 17 15 15 15 16 15 16 16 17 17 17 17
17 17 17 17 17 18 18 18 18 18 17 17 17 18 18 18 18 19 19 19 19 19 19 19 19 18 18 17 17 17 17 17 17 17 17 18 18 18
17 17 18 18 18 18 18 19 19 18 18 18 19 19 19 19 19 19 19 20 20 20 20 20 20 20 19 18 18 18 18 19 19 19 19 19 19 19
16 17 17 18 18 19 19 19 20 20 20 19 20 20 20 20 20 20 21 21 21 21 21 21 21 21 20 20 20 20 21 20 20 20 21 21 21 21
16 16 17 17 18 19 19 20 20 21 21 21 21 21 21 21 21 21 22 22 22 22 22 22 22 22 21 22 22 23 22 22 22 22 22 22 22 23
17 17 17 17 18 19 19 20 21 21 22 22 22 22 22 22 22 22 23 23 23 23 23 23 23 23 23 23 23 23 23 23 23 23 24 24 24 25
17 18 18 18 18 20 20 20 21 22 22 23 22 22 23 23 23 23 24 24 24 24 24 24 24 24 25 24 24 24 24 25 25 25 25 25 26 26
18 19 19 19 20 21 21 22 23 23 23 24 24 24 24 24 25 25 25 25 25 25 25 25 25 25 26 26 25 25 25 26 26 26 27 27 27 27
19 20 20 20 21 21 22 23 23 24 24 25 25 25 25 25 25 26 26 26 26 26 26 26 26 26 26 26 26 27 26 26 26 27 27 28 28 28
19 20 21 21 21 22 22 23 23 24 24 25 25 25 25 25 26 26 26 26 26 26 27 27 27 27 27 27 27 27 27 27 27 27 28 28 29 30
21 21 21 22 22 23 23 23 24 24 25 25 25 25 26 26 26 27 27 27 27 27 28 28 27 27 28 28 28 28 28 29 29 30 30 30 30 31
22 23 23 23 24 24 24 25 25 25 25 25 26 26 27 27 27 28 28 28 28 28 29 29 29 28 28 28 28 29 30 30 30 31 31 31 32 32
24 24 25 25 25 26 26 26 27 27 27 26 27 27 27 27 28 28 29 29 29 30 30 30 30 30 29 28 29 29 30 31 32 32 32 32 33 33
25 25 26 26 26 27 27 27 27 28 27 27 27 27 27 28 28 29 29 30 30 31 30 30 30 30 30 30 30 30 31 32 33 33 33 34 34 34
26 26 26 26 27 28 29 29 29 29 29 29 28 28 28 29 30 30 30 31 31 31 31 32 32 32 32 32 32 32 33 33 33 34 34 35 35 35
28 28 28 28 28 29 29 30 29 30 30 30 30 30 30 31 31 31 32 32 32 32 32 32 32 33 33 34 34 34 34 34 33 33 34 34 35 35
29 29 29 29 30 31 31 30 30 31 31 31 32 32 32 33 33 34 34 34 33 33 33 33 34 34 35 35 35 35 35 35 35 35 35 35 35 36
31 30 30 31 31 31 31 31 31 32 32 33 33 34 33 34 34 35 35 36 36 36 36 35 36 36 36 36 35 35 35 36 36 37 37 36 36 36
32 32 32 31 31 31 32 32 32 32 33 34 34 34 34 35 35 36 36 36 36 36 36 36 37 37 37 37 36 37 38 38 38 38 38 38 37 38
32 32 32 32 32 32 32 33 33 33 34 34 34 35 35 35 36 36 36 36 36 37 38 38 39 40 40 40 39 39 39 40 40 39 39 40 40 40
32 32 33 32 32 33 33 33 33 33 33 34 35 35 36 37 37 38 38 38 38 38 39 40 40 41 42 43 42 41 41 41 41 42 42 42 42 42
32 33 33 34 34 34 34 34 34 34 35 35 36 37 37 38 39 39 39 40 40 41 41 41 41 42 42 43 43 43 43 43 43 43 43 43 43 43
34 34 35 35 36 35 35 35 36 36 36 36 37 38 38 39 40 40 41 41 41 42 42 43 43 43 44 44 44 44 44 44 44 45 44 44 45 45
Wind_Direction
271 270 270 270 271 272 271 271 272 273 275 277 279 278 280 280 280 280 281 281 280 278 279 280 282 282 282 281 280 276 273 273 273 273 272 270 270 270
272 271 271 272 273 273 272 271 271 273 275 276 278 280 280 280 280 279 280 280 280 280 280 280 279 278 278 277 277 276 276 275 274 272 271 270 271 271
275 273 272 271 271 271 271 271 272 273 274 275 277 279 280 281 282 282 282 281 280 281 280 279 278 277 277 276 276 276 276 276 275 274 272 272 272 272
277 275 272 271 271 271 271 271 272 272 273 274 275 277 278 279 280 280 281 281 281 280 278 278 278 277 276 276 275 274 274 274 273 273 272 271 271 271
277 275 273 270 271 273 271 271 272 272 272 273 274 276 276 277 278 280 281 280 279 278 277 277 277 275 274 275 274 274 272 272 272 272 272 271 270 271
279 277 275 274 274 275 275 275 274 274 274 274 273 274 274 277 278 279 279 279 279 278 277 276 276 274 274 274 273 273 272 272 273 273 272 272 272 272
280 278 276 276 276 277 277 277 276 276 275 275 274 273 273 275 277 278 279 278 279 277 277 276 276 274 274 274 273 274 273 273 274 274 273 273 274 274
281 279 278 277 278 279 279 278 279 278 277 276 275 274 274 275 276 277 278 278 277 278 277 276 275 274 275 275 275 276 276 276 275 275 275 274 274 275
280 279 279 279 280 280 280 281 281 280 279 277 276 275 275 276 279 280 280 280 277 278 278 278 277 276 276 276 277 277 277 278 277 276 276 276 276 275
280 280 280 280 281 282 282 282 282 282 280 279 278 276 276 277 279 280 280 282 280 278 279 279 277 275 275 276 277 278 278 277 278 278 278 278 278 278
282 282 281 282 282 282 283 282 281 282 281 279 278 276 275 276 277 278 278 280 280 280 279 279 278 276 276 276 277 278 278 279 279 279 279 279 279 279
282 282 282 282 282 282 283 283 283 281 280 279 277 276 277 277 277 277 278 279 280 280 280 280 278 277 277 276 276 277 278 278 279 280 280 279 279 278
281 281 281 282 282 283 285 285 283 280 279 279 278 278 279 278 277 278 278 278 279 279 279 279 278 277 277 277 277 277 279 280 280 281 280 279 278 277
281 281 281 281 282 284 286 285 282 280 280 280 279 279 279 278 278 279 280 280 280 279 279 278 276 277 277 278 278 279 280 281 280 280 279 278 277 277
281 281 282 282 282 284 286 284 282 280 281 281 280 280 280 280 279 279 280 281 281 281 280 278 277 276 277 278 279 280 280 281 280 280 280 279 279 278
282 282 282 283 283 285 286 284 282 280 280 280 280 281 280 280 279 279 280 281 281 281 280 279 278 278 279 279 279 280 280 280 280 281 282 281 280 278
282 282 282 284 285 284 285 284 282 281 280 280 280 281 280 280 280 280 280 281 281 281 281 280 279 279 279 280 281 280 279 279 280 281 281 281 280 280
282 282 283 285 286 285 284 283 282 281 281 280 281 281 281 281 280 281 281 281 280 280 280 280 280 281 281 281 281 280 279 280 280 280 280 280 279 280
283 283 283 284 284 285 285 284 282 281 280 280 280 281 281 281 282 282 282 282 281 280 279 279 280 280 281 281 279 279 279 280 280 280 279 279 279 279
283 283 284 285 285 286 286 285 283 282 281 280 280 281 281 282 282 283 283 283 282 281 280 280 281 281 281 281 279 279 279 279 279 279 279 279 279 279
284 284 285 285 286 286 287 286 285 284 283 282 282 282 282 282 282 283 283 282 282 281 281 281 281 281 280 280 279 279 279 279 279 279 279 279 278 278
284 285 286 285 286 286 286 286 285 285 284 284 283 283 283 283 283 283 282 282 282 281 281 281 281 281 281 281 280 279 279 278 277 278 280 280 279 279
284 285 286 286 285 285 285 285 285 285 285 285 284 284 284 283 283 282 281 282 282 282 282 282 282 282 282 282 281 280 280 278 277 277 278 279 279 280
Height
5825 5824 5824 5824 5823 5823 5823 5823 5823 5822 5822 5820 5819 5818 5818 5817 5816 5815 5814 5813 5812 5811 5810 5809 5808 5807 5806 5804 5803 5802 5802 5803 5802 5802 5802 5802 5802 5802
5820 5819 5819 5818 5818 5818 5818 5817 5817 5817 5817 5816 5815 5814 5813 5812 5811 5810 5809 5808 5807 5806 5805 5804 5804 5803 5802 5801 5800 5799 5799 5798 5798 5798 5797 5797 5797 5797
5814 5814 5813 5813 5813 5812 5812 5812 5812 5812 5811 5811 5810 5809 5808 5807 5806 5805 5804 5804 5803 5802 5801 5799 5799 5798 5797 5796 5796 5795 5794 5794 5793 5792 5792 5792 5792 5792
5809 5808 5807 5807 5807 5807 5807 5806 5806 5806 5806 5805 5804 5804 5803 5802 5801 5800 5799 5798 5797 5796 5795 5794 5793 5792 5791 5791 5790 5789 5789 5788 5787 5787 5787 5787 5787 5786
5803 5803 5802 5802 5802 5801 5801 5801 5800 5800 5800 5799 5799 5798 5797 5796 5796 5795 5793 5792 5792 5791 5790 5789 5788 5787 5786 5785 5784 5783 5782 5782 5781 5781 5780 5780 5780 5780
5798 5798 5797 5797 5796 5796 5795 5795 5794 5794 5793 5792 5792 5791 5791 5790 5789 5788 5787 5786 5785 5784 5783 5782 5781 5780 5779 5778 5777 5777 5776 5775 5775 5774 5774 5773 5773 5772
5793 5793 5792 5792 5791 5790 5790 5789 5788 5787 5786 5786 5785 5785 5784 5784 5783 5781 5780 5779 5778 5777 5776 5775 5774 5773 5772 5771 5770 5769 5768 5768 5767 5767 5766 5766 5765 5764
5788 5787 5787 5786 5785 5784 5784 5783 5782 5781 5780 5779 5778 5777 5777 5776 5776 5774 5773 5772 5771 5770 5768 5767 5766 5765 5764 5763 5762 5761 5760 5759 5759 5758 5758 5757 5756 5756
5783 5782 5781 5780 5779 5778 5777 5776 5775 5774 5773 5772 5770 5770 5769 5769 5768 5767 5765 5764 5763 5762 5760 5759 5758 5757 5756 5755 5754 5753 5752 5751 5750 5749 5748 5748 5747 5746
5777 5776 5775 5774 5773 5772 5771 5769 5768 5766 5765 5764 5763 5762 5761 5761 5760 5759 5757 5756 5755 5753 5752 5751 5750 5749 5748 5747 5746 5745 5743 5742 5741 5740 5740 5738 5738 5737
5771 5770 5769 5768 5767 5765 5764 5762 5761 5759 5757 5756 5755 5754 5753 5752 5751 5750 5749 5748 5746 5745 5743 5743 5742 5740 5739 5738 5737 5736 5735 5734 5733 5731 5730 5729 5728 5727
5765 5764 5762 5761 5760 5758 5757 5755 5753 5751 5750 5748 5747 5746 5744 5743 5742 5741 5740 5739 5738 5737 5735 5734 5732 5731 5731 5730 5728 5727 5726 5725 5723 5722 5721 5719 5718 5717
5758 5757 5755 5754 5752 5751 5749 5747 5745 5743 5742 5740 5739 5737 5736 5734 5733 5732 5731 5730 5729 5728 5726 5725 5723 5722 5721 5721 5719 5718 5716 5715 5713 5712 5710 5709 5708 5707
5750 5749 5748 5746 5745 5743 5741 5739 5737 5735 5733 5732 5730 5729 5727 5726 5725 5723 5722 5720 5719 5718 5716 5715 5714 5713 5712 5711 5710 5708 5706 5705 5703 5701 5700 5699 5697 5696
5742 5741 5739 5738 5736 5734 5732 5730 5728 5726 5725 5723 5722 5720 5719 5717 5716 5714 5713 5711 5709 5708 5706 5705 5704 5703 5702 5701 5700 5698 5697 5695 5693 5691 5689 5688 5686 5685
5733 5732 5730 5728 5727 5725 5723 5721 5719 5717 5716 5714 5713 5711 5709 5708 5706 5705 5703 5701 5700 5699 5697 5695 5694 5693 5691 5690 5689 5687 5686 5684 5683 5680 5678 5677 5675 5673
5724 5722 5721 5719 5717 5715 5713 5711 5709 5707 5706 5704 5703 5701 5699 5698 5696 5695 5693 5691 5690 5688 5687 5685 5683 5682 5680 5679 5677 5676 5674 5673 5671 5669 5667 5666 5664 5662
5714 5713 5711 5709 5707 5705 5703 5701 5699 5697 5695 5693 5692 5690 5689 5687 5685 5684 5682 5680 5678 5677 5675 5674 5672 5671 5669 5668 5666 5664 5662 5661 5659 5657 5655 5654 5652 5650
5704 5702 5700 5699 5697 5695 5693 5691 5688 5686 5684 5682 5680 5679 5677 5675 5674 5672 5670 5668 5666 5665 5663 5662 5660 5658 5657 5656 5655 5652 5650 5648 5647 5645 5643 5641 5640 5638
5693 5692 5690 5688 5686 5684 5682 5680 5677 5675 5673 5671 5669 5667 5666 5664 5662 5660 5658 5656 5654 5653 5651 5649 5648 5646 5644 5642 5641 5640 5638 5636 5634 5632 5631 5629 5627 5625
5683 5681 5680 5677 5675 5673 5671 5669 5666 5664 5662 5660 5658 5656 5654 5652 5650 5648 5646 5644 5642 5640 5638 5637 5635 5632 5630 5628 5627 5627 5625 5623 5621 5619 5617 5615 5614 5612
5673 5671 5669 5667 5665 5662 5660 5657 5655 5653 5651 5649 5646 5644 5642 5640 5638 5635 5633 5631 5629 5627 5625 5624 5621 5619 5617 5615 5613 5612 5611 5609 5607 5605 5603 5601 5599 5597
5662 5660 5658 5656 5653 5651 5649 5646 5644 5642 5639 5637 5634 5632 5630 5627 5625 5622 5620 5618 5616 5614 5612 5610 5608 5606 5603 5601 5599 5597 5596 5594 5592 5591 5590 5587 5585 5583